Regional Weather Roundup
Issued by NWS

Home | Current Version | Previous Version | Text Only | Print | Product List | Glossary Off
Versions: 1 2 3 4 5 6 7 8 9 10 11 12 13 14 15 16 17 18 19 20 21 22 23 24 25 26 27 28 29 30 31 32 33 34 35 36 37 38 39 40 41 42 43 44 45 46 47 48 49 50

000
ASUS45 KTFX 190110
RWRMT
MONTANA REGIONAL WEATHER ROUNDUP
NATIONAL WEATHER SERVICE GREAT FALLS MT
600 PM MST WED JAN 18 2017

NOTE: "FAIR" INDICATES FEW OR NO CLOUDS BELOW 12000 FEET WITH NO
SIGNIFICANT WEATHER AND/OR OBSTRUCTIONS TO VISIBILITY.

MTZ001>007-043-190200-
WEST OF THE DIVIDE

CITY           SKY/WX    TMP DP  RH WIND       PRES   REMARKS
KALISPELL      LGT SNOW  30  28  92 W5        29.61F
MISSOULA       MOCLDY    26  21  81 CALM      29.63F
BUTTE          CLOUDY    28  20  71 W3        29.66F
MULLAN PASS    CLOUDY    33  31  92 CALM      29.57F
ANACONDA         N/A     39  23  52 SE15      29.64S WCI  31
DEER LODGE       N/A     39  28  65 S14G21    29.61F WCI  31
EUREKA           N/A     39  34  81 SE17      29.55F WCI  30
HAMILTON         N/A     45  27  49 S15       29.60S
PLAINS           N/A     30  24  78 CALM      29.65F
RONAN            N/A     32  29  89 CALM      29.66S
$$

MTZ008-052>055-190200-
SOUTHWEST MONTANA

CITY           SKY/WX    TMP DP  RH WIND       PRES   REMARKS
BOZEMAN        CLOUDY    22  16  78 SE5       29.70S
DILLON         CLOUDY    38  19  46 W7        29.71F
W YELLOWSTONE  CLOUDY    18  14  86 SE3       29.87S
ENNIS          CLOUDY    32  19  59 S21       29.77S WCI  20
TWIN BRIDGES     N/A     32  17  54 SE3       29.74F
$$

MTZ009-010-012-014-046-048-049-054-190200-
EAST SLOPES AND CENTRAL MONTANA

CITY           SKY/WX    TMP DP  RH WIND       PRES   REMARKS
CUT BANK       PTCLDY    46  33  60 VRB3      29.46F
GREAT FALLS    CLEAR     41  28  60 SW14      29.53R
MALMSTROM AFB  CLEAR     42  29  59 SW20      29.53S
HELENA         CLOUDY    31  20  63 SW6       29.61F WCI  25
AUGUSTA          N/A     41  31  68 W16       29.51S
BOWMANS CRNR     N/A     39  26  59 S24       29.52F WCI  28
CHOTEAU          N/A     46  32  57 VRB6G18   29.51F
CONRAD           N/A     40  35  82 S12       29.55S
POWER            N/A     40  29  65 MISG      29.52R
RAYNESFORD       N/A     47  26  44 SW3       29.54F
ULM              N/A     43  28  56 MISG      29.54R
$$

MTZ011-013-016-021-045-047-050-051-190200-
NORTH CENTRAL MONTANA

CITY           SKY/WX    TMP DP  RH WIND       PRES   REMARKS
HAVRE          CLOUDY    40  32  73 W10       29.47R
LEWISTOWN      CLOUDY    42  27  55 SW14      29.57R
N BAR RANCH      N/A     41  28  60 N5        29.58S
CHINOOK          N/A     46  32  57 W9        29.45R
DENTON           N/A     43  30  60 S5        29.50F
FORT BENTON      N/A     52  28  40 MISG      29.50S
GEYSER           N/A     41  28  60 W10       29.53S
GRASS RANGE      N/A     47  27  45 W14       29.51F
JUDITH GAP       N/A     42  24  49 W17G31    29.59F
ROY              N/A     49  28  45 MISG      29.52F
STANFORD         N/A     42  28  56 SW20      29.54F
WINIFRED         N/A     45  27  49 SW10      29.51F
$$

MTZ017>020-022>027-061-062-190200-
NORTHEAST MONTANA

CITY           SKY/WX    TMP DP  RH WIND       PRES   REMARKS
GLASGOW        CLEAR     32  26  78 E10       29.51F WCI  24
JORDAN           N/A     39  29  67 NW6       29.53F
SIDNEY         CLOUDY    29  24  82 S12       29.57F WCI  19
WOLF POINT     CLOUDY    30  23  75 E5        29.54F
PLENTYWOOD       N/A     32  27  80 SE7       29.53F WCI  26
POPLAR           N/A     37  28  70 S3        29.55S
SCOBEY           N/A     35  24  64 SE2       29.52F
$$

MTZ028>42-056>058-190200-
SOUTHCENTRAL AND SOUTHEAST MONTANA

CITY           SKY/WX    TMP DP  RH WIND       PRES   REMARKS
BAKER          CLOUDY    25  20  81 CALM      29.63F
BILLINGS       CLOUDY    40  23  50 SW14      29.60F
LIVINGSTON     CLOUDY    45  17  32 SW33G45   29.65F
MILES CITY     CLOUDY    31  22  69 S12       29.60F WCI  22
BIG TIMBER     CLEAR     43  18  36 W25G31    29.67R
EKALAKA          N/A     40  20  45 SE9       29.65
FORSYTH          N/A     39  23  52 SE3       29.58F
HARLOWTON        N/A     42  20  42 NW15      29.63R
LAUREL           N/A     39  22  51 S7        29.63F
ROUNDUP          N/A     42  23  47 S10       29.54
$$

REGIONAL REPORTS...DAKOTAS

CITY           SKY/WX    TMP DP  RH WIND       PRES   REMARKS
WILLISTON      CLOUDY    33  26  75 CALM      29.56F
MINOT          CLOUDY    39  28  64 S15       29.55S WCI  31
DICKINSON      CLOUDY    35  26  69 S14       29.58F WCI  26
BEACH            N/A     32  25  74 SW5       29.63F
CROSBY           N/A     32  27  80 S20       29.53F WCI  20
TIOGA            N/A     32  28  86 SW9       29.56F WCI  24
WATFORD CITY     N/A     32  25  74 SW6       29.58S WCI  26
BISMARCK       CLOUDY    27  22  81 CALM      29.65F
GRAND FORKS    CLOUDY    29  22  75 S12       29.67S WCI  19
FARGO          CLEAR     34  27  75 S12       29.71F WCI  25
BUFFALO SD       N/A     35  23  61 NW14      29.57R WCI  26
RAPID CITY     CLOUDY    28  22  78 CALM      29.61F
$$

REGIONAL REPORTS...WYOMING/IDAHO/WASHINGTON

CITY           SKY/WX    TMP DP  RH WIND       PRES   REMARKS
GILLETTE       CLOUDY    39  24  55 CALM      29.63F
SHERIDAN       CLOUDY    23  17  78 VRB6      29.63R WCI  16
BUFFALO WY     CLOUDY    45  20  36 NW7       29.64S
YELLOWSTONE LA   N/A     17  15  92 CALM      29.87R
IDAHO FALLS    CLOUDY    16  11  80 N8        29.91F WCI   5
SALMON         CLOUDY    12   7  79 N5        29.82R
BOISE          FRZ RAIN  32  30  92 S16       29.77F WCI  21
SPOKANE        CLOUDY    39  34  82 SE7       29.53F
$$

REGIONAL REPORTS...ALBERTA

CITY           SKY/WX    TMP DP  RH WIND       PRES   REMARKS
CALGARY        PTCLDY    39  28  65 NW5       29.28R
LETHBRIDGE     MOCLDY    43  32  65 SW15G22   29.40R
MEDICINE HAT   PTCLDY    41  34  75 S13G18    29.39R
WATERTON GATE    N/A     41  32  70 SW31G45     N/A
MILK RIVER       N/A     41  34  75 SW15G21     N/A
$$

REGIONAL REPORTS...SASKATCHEWAN

CITY           SKY/WX    TMP DP  RH WIND       PRES   REMARKS
SWIFT CURRENT  CLEAR     37  32  81 SW10      29.35F WCI  30
REGINA         PTCLDY    36  30  80 S14       29.41F WCI  27
SASKATOON      PTCLDY    36  32  87 SW9       29.29S WCI  29
VAL MARIE        N/A     39  30  70 SE5         N/A
ROCKGLEN         N/A     37  30  75 SW12        N/A  WCI  30
ASSINIBOIA       N/A     32  28  86 S6          N/A  WCI  26
$$



USA.gov is the U.S. government's official web portal to all federal, state and local government web resources and services.